Temp
70 66 68 67 65 64 64 64 66 67 68 69 69 68 68 66 67 67 67 66 66 65
70 69 68 69 67 64 66 66 68 68 68 69 69 68 67 66 68 68 66 66 65 64
71 72 71 70 68 65 67 69 67 68 68 68 68 68 68 68 68 66 65 65 64 64
73 75 72 69 70 65 66 68 68 68 68 68 68 67 67 67 67 66 65 64 62 62
75 75 70 69 70 67 68 70 71 71 70 69 69 69 68 67 67 65 64 64 62 61
74 72 72 70 69 68 66 68 71 71 71 69 69 68 68 69 67 66 64 64 62 62
74 73 74 74 71 71 70 67 68 70 73 71 70 70 71 69 66 66 65 64 64 63
75 76 76 75 75 73 71 71 69 72 73 71 70 70 69 68 67 66 65 65 65 64
76 77 73 75 75 73 74 73 72 69 70 68 68 52 57 66 67 66 65 64 63 61
76 76 75 76 75 74 72 72 70 69 68 66 63 53 54 60 69 65 66 66 66 70
78 76 76 74 73 71 72 71 70 68 68 65 62 55 55 62 70 69 69 68 67 65
80 76 75 73 71 71 71 71 71 71 68 65 64 55 55 65 70 69 69 69 68 69
81 77 75 73 71 71 72 71 73 72 71 64 64 50 52 58 70 67 67 66 62 53
79 75 74 72 72 71 71 71 71 71 70 70 65 59 51 50 65 68 67 66 65 59
MSLP
1007.95 1008.18 1008.26 1008.39 1008.56 1008.48 1008.56 1008.61 1008.75 1008.75 1008.71 1008.75 1008.87 1009.09 1009.32 1009.43 1009.69 1010.31 1010.67 1011.12 1011.57 1012.23
1007.86 1008.13 1008.34 1008.43 1008.50 1008.68 1008.68 1008.72 1008.80 1008.83 1008.75 1008.83 1009.13 1009.41 1009.70 1009.85 1010.40 1010.83 1011.32 1011.79 1012.23 1012.71
1007.76 1007.98 1008.14 1008.34 1008.50 1008.77 1008.70 1008.75 1008.90 1008.98 1008.97 1009.22 1009.35 1009.53 1009.92 1010.46 1010.91 1011.36 1012.12 1012.54 1012.96 1013.57
1007.59 1007.74 1008.16 1008.37 1008.50 1008.82 1008.84 1008.99 1008.99 1009.24 1009.27 1009.53 1009.66 1010.05 1010.27 1010.82 1011.40 1012.04 1012.68 1013.23 1013.53 1014.07
1007.57 1007.80 1008.36 1008.60 1008.66 1008.87 1009.14 1009.26 1009.18 1009.36 1009.52 1009.82 1010.09 1010.37 1010.61 1011.23 1011.89 1012.56 1013.30 1013.87 1014.29 1014.58
1007.72 1008.12 1008.34 1008.64 1008.94 1008.99 1009.29 1009.60 1009.60 1009.74 1009.71 1010.10 1010.32 1010.54 1010.97 1011.44 1012.14 1012.81 1013.41 1013.87 1014.22 1014.63
1007.84 1008.17 1008.22 1008.36 1008.86 1009.16 1009.53 1009.78 1010.06 1010.24 1010.03 1010.26 1010.60 1010.77 1011.36 1011.86 1012.45 1013.12 1013.79 1014.27 1014.26 1014.80
1007.90 1007.97 1008.13 1008.27 1008.51 1009.08 1009.62 1009.76 1010.27 1010.28 1010.27 1010.68 1011.10 1011.38 1011.62 1012.09 1012.78 1013.24 1013.90 1014.28 1014.72 1015.30
1007.96 1008.01 1008.30 1008.50 1008.81 1009.06 1009.29 1009.67 1010.06 1010.46 1010.83 1011.34 1011.70 1011.74 1012.02 1012.34 1012.86 1013.40 1013.99 1014.75 1015.25 1015.68
1007.85 1008.08 1008.44 1008.73 1009.06 1009.29 1009.57 1009.80 1010.52 1010.93 1011.41 1011.87 1012.09 1012.12 1012.37 1012.64 1013.04 1013.60 1014.00 1014.59 1015.15 1015.56
1007.54 1007.98 1008.42 1008.78 1009.19 1009.68 1009.91 1010.21 1010.65 1011.25 1011.78 1012.30 1012.68 1012.64 1012.77 1012.90 1013.24 1013.62 1013.95 1014.31 1014.69 1015.26
1007.02 1007.66 1008.27 1008.66 1009.23 1009.79 1010.18 1010.46 1010.75 1011.23 1011.91 1012.45 1012.91 1013.06 1013.19 1013.22 1013.49 1013.82 1014.11 1014.55 1014.91 1015.42
1006.54 1007.23 1007.97 1008.53 1009.17 1009.72 1010.15 1010.53 1010.74 1011.15 1011.63 1012.36 1012.95 1013.13 1013.35 1013.63 1013.75 1014.24 1014.56 1014.92 1015.38 1015.66
1006.09 1006.84 1007.65 1008.40 1009.09 1009.71 1010.14 1010.40 1010.66 1011.01 1011.48 1012.04 1012.74 1013.37 1013.58 1013.98 1014.36 1014.29 1014.77 1015.10 1015.58 1016.08
Wind_Speed
8 3 4 5 3 3 4 4 5 4 4 4 5 5 6 5 9 9 7 10 10 9
7 5 5 5 4 3 4 4 5 4 4 5 6 8 9 6 9 10 8 9 8 9
6 5 6 6 5 4 4 5 6 6 7 8 7 9 9 7 9 11 7 6 11 10
5 4 7 6 4 6 3 5 7 8 7 8 7 9 7 8 9 10 9 8 9 11
5 5 7 6 5 6 6 5 6 8 8 7 8 8 9 10 9 10 11 9 10 10
5 6 6 7 8 5 6 7 5 6 5 7 7 8 10 9 9 8 9 11 10 10
5 6 4 5 8 7 7 6 6 4 6 9 7 7 9 9 9 9 8 9 10 10
4 4 5 5 5 11 10 6 7 5 2 10 11 6 9 9 9 9 10 9 8 8
6 4 5 6 5 6 5 7 9 7 8 7 6 7 12 10 8 7 7 8 7 6
7 7 6 6 5 4 5 6 10 9 8 6 6 10 10 12 8 7 8 10 11 10
10 9 7 7 6 6 4 5 6 8 7 6 4 9 10 8 7 6 7 7 7 8
11 11 8 7 8 6 4 4 3 7 8 7 4 5 9 4 6 6 5 8 6 7
11 11 10 7 8 7 5 5 4 6 7 10 6 2 3 4 2 6 4 6 6 7
10 9 8 8 7 6 5 6 5 6 6 7 8 6 6 6 1 4 5 5 5 4
Wind_Direction
91 90 76 83 71 49 58 77 121 140 154 186 181 149 148 142 102 102 96 97 108 106
109 99 103 112 99 66 89 100 91 110 121 126 136 139 124 114 109 97 90 90 95 102
114 141 138 156 135 111 70 118 115 99 116 119 131 126 112 116 115 103 95 95 104 102
115 116 94 91 112 118 76 128 113 113 113 119 116 132 117 108 109 110 109 107 104 109
114 99 101 103 111 109 93 68 86 119 121 118 133 140 132 134 134 132 126 126 122 116
116 92 101 121 119 128 104 100 113 102 131 128 139 148 132 128 127 126 127 128 130 122
130 135 147 149 143 137 112 109 102 139 122 139 154 138 126 130 128 132 135 138 120 125
142 156 150 137 98 132 138 142 133 122 158 100 122 142 130 129 141 133 132 135 124 150
174 172 134 103 104 109 115 125 127 85 76 66 70 64 119 128 130 121 119 131 135 128
182 157 143 140 132 89 95 93 105 96 89 75 62 46 74 119 116 118 133 144 148 157
177 162 173 154 132 108 90 91 108 117 110 99 71 49 46 108 115 124 136 143 119 120
182 162 175 165 140 138 140 129 135 129 128 118 117 67 57 75 104 110 122 90 91 136
181 165 169 158 147 148 165 160 190 141 140 143 143 176 102 46 102 123 111 105 90 56
169 158 158 143 146 151 175 173 215 151 146 143 147 176 196 111 350 150 148 140 139 114